| time (UTC) | temp F | wind direction | speed MPH | gust MPH | rain 1hr in | rain 24hr in | rain mn in | humidity % | barometer mb |
| 20260507033911 | 55 | 230 | 0.0 | 0.0 | 0.00 | 0.00 | 0.64 | 98 | 1016.2 |
| 20260507033343 | 55 | 232 | 0.0 | 0.0 | 0.00 | 0.00 | 0.64 | 98 | 1016.2 |
| 20260507032121 | 55 | 230 | 0.0 | 0.0 | 0.00 | 0.00 | 0.64 | 98 | 1016.2 |
| 20260507030950 | 55 | 231 | 0.0 | 0.0 | 0.00 | 0.00 | 0.64 | 98 | 1016.2 |
| 20260507030351 | 55 | 240 | 0.0 | 0.0 | 0.00 | 0.00 | 0.64 | 98 | 1016.2 |
| 20260507025726 | 55 | 241 | 0.0 | 0.0 | 0.00 | 0.00 | 0.64 | 98 | 1016.2 |
| 20260507024540 | 55 | 221 | 0.0 | 0.0 | 0.00 | 0.00 | 0.64 | 98 | 1016.2 |
| 20260507023911 | 55 | 256 | 0.0 | 0.0 | 0.00 | 0.00 | 0.64 | 98 | 1016.5 |
| 20260507023354 | 55 | 261 | 0.0 | 0.0 | 0.00 | 0.00 | 0.64 | 98 | 1015.9 |
| 20260507022710 | 55 | 240 | 0.0 | 0.0 | 0.00 | 0.00 | 0.64 | 98 | 1015.5 |
| 20260507022117 | 55 | 204 | 0.0 | 0.0 | 0.00 | 0.00 | 0.64 | 98 | 1016.5 |
| 20260507021541 | 55 | 283 | 0.0 | 0.0 | 0.00 | 0.00 | 0.64 | 98 | 1016.9 |
| 20260507020939 | 55 | 305 | 0.0 | 0.0 | 0.00 | 0.00 | 0.64 | 98 | 1016.5 |
| 20260507020318 | 55 | 199 | 0.0 | 0.0 | 0.00 | 0.00 | 0.64 | 98 | 1016.5 |
| 20260507015728 | 55 | 246 | 0.0 | 0.0 | 0.00 | 0.00 | 0.64 | 98 | 1016.5 |
| 20260507015145 | 55 | 259 | 0.0 | 0.0 | 0.00 | 0.00 | 0.64 | 98 | 1016.2 |
| 20260507014513 | 55 | 251 | 0.0 | 0.0 | 0.00 | 0.00 | 0.64 | 98 | 1016.2 |
| 20260507013930 | 55 | 264 | 0.0 | 0.0 | 0.00 | 0.00 | 0.64 | 98 | 1015.5 |
| 20260507013354 | 55 | 120 | 0.0 | 0.0 | 0.00 | 0.00 | 0.64 | 98 | 1015.2 |
| 20260507012144 | 55 | 236 | 0.0 | 0.0 | 0.00 | 0.00 | 0.64 | 98 | 1016.2 |
| 20260507011532 | 55 | 227 | 0.0 | 0.0 | 0.00 | 0.00 | 0.64 | 98 | 1015.5 |
| 20260507010953 | 55 | 124 | 0.0 | 0.0 | 0.00 | 0.00 | 0.64 | 98 | 1014.9 |
| 20260507010329 | 55 | 147 | 0.0 | 0.0 | 0.00 | 0.00 | 0.64 | 98 | 1014.9 |
| 20260507005135 | 55 | 226 | 0.0 | 0.0 | 0.00 | 0.00 | 0.64 | 98 | 1015.5 |
| 20260507004543 | 55 | 236 | 0.0 | 0.0 | 0.00 | 0.00 | 0.64 | 98 | 1015.5 |
| 20260507003345 | 56 | 238 | 0.0 | 0.0 | 0.00 | 0.00 | 0.64 | 98 | 1015.2 |
| 20260507002729 | 56 | 244 | 0.0 | 0.0 | 0.00 | 0.00 | 0.64 | 98 | 1014.5 |
| 20260507001548 | 56 | 226 | 0.0 | 0.0 | 0.00 | 0.00 | 0.64 | 98 | 1014.5 |
| 20260507000314 | 56 | 218 | 0.0 | 0.0 | 0.00 | 0.00 | 0.63 | 97 | 1015.2 |
| 20260506235729 | 56 | 255 | 0.0 | 0.0 | 0.00 | 0.00 | 0.61 | 97 | 1015.5 |
| 20260506235133 | 56 | 232 | 0.0 | 0.0 | 0.00 | 0.00 | 0.61 | 97 | 1015.5 |
| 20260506234523 | 56 | 231 | 0.0 | 0.0 | 0.00 | 0.00 | 0.61 | 97 | 1015.2 |
| 20260506233939 | 56 | 221 | 0.0 | 0.0 | 0.00 | 0.00 | 0.61 | 97 | 1014.9 |
| 20260506233351 | 56 | 93 | 0.0 | 0.0 | 0.00 | 0.00 | 0.61 | 97 | 1014.5 |
| 20260506232743 | 56 | 235 | 0.0 | 0.0 | 0.00 | 0.00 | 0.61 | 97 | 1014.5 |
| 20260506232149 | 56 | 226 | 0.0 | 0.0 | 0.00 | 0.00 | 0.61 | 97 | 1014.9 |
| 20260506231525 | 56 | 217 | 0.0 | 0.0 | 0.00 | 0.00 | 0.61 | 97 | 1014.9 |
| 20260506230932 | 56 | 216 | 0.0 | 0.0 | 0.00 | 0.00 | 0.61 | 97 | 1015.2 |
| 20260506230329 | 56 | 225 | 0.0 | 0.0 | 0.00 | 0.00 | 0.60 | 96 | 1015.2 |
| 20260506225711 | 56 | 222 | 0.0 | 0.0 | 0.00 | 0.00 | 0.60 | 97 | 1015.2 |
| 20260506225110 | 56 | 245 | 0.0 | 0.0 | 0.00 | 0.00 | 0.60 | 96 | 1015.2 |
| 20260506224517 | 57 | 226 | 0.0 | 0.0 | 0.00 | 0.00 | 0.59 | 96 | 1015.2 |
| 20260506223932 | 57 | 247 | 0.0 | 0.0 | 0.00 | 0.00 | 0.59 | 96 | 1015.2 |
| 20260506223327 | 57 | 229 | 0.0 | 0.0 | 0.00 | 0.00 | 0.59 | 96 | 1015.5 |
| 20260506222722 | 57 | 236 | 0.0 | 0.0 | 0.00 | 0.00 | 0.59 | 96 | 1014.9 |
| 20260506222145 | 57 | 264 | 0.0 | 0.0 | 0.00 | 0.00 | 0.59 | 96 | 1015.2 |
| 20260506221515 | 57 | 278 | 0.0 | 0.0 | 0.00 | 0.00 | 0.59 | 96 | 1014.9 |
| 20260506220918 | 58 | 194 | 0.0 | 0.0 | 0.00 | 0.00 | 0.59 | 96 | 1014.5 |
| 20260506220343 | 57 | 253 | 0.0 | 0.0 | 0.00 | 0.00 | 0.59 | 96 | 1014.9 |
| 20260506215738 | 57 | 223 | 0.0 | 0.0 | 0.00 | 0.00 | 0.59 | 96 | 1014.5 |
| 20260506215142 | 57 | 221 | 0.0 | 0.0 | 0.00 | 0.00 | 0.59 | 96 | 1014.9 |
| 20260506214549 | 57 | 224 | 0.0 | 0.0 | 0.00 | 0.00 | 0.59 | 96 | 1015.2 |
| 20260506213317 | 57 | 222 | 0.0 | 0.0 | 0.00 | 0.00 | 0.59 | 96 | 1014.9 |
| 20260506212713 | 57 | 188 | 0.0 | 0.0 | 0.00 | 0.00 | 0.59 | 96 | 1014.2 |
| 20260506212127 | 57 | 228 | 0.0 | 0.0 | 0.00 | 0.00 | 0.59 | 96 | 1014.9 |
| 20260506210930 | 56 | 208 | 0.0 | 0.0 | 0.00 | 0.00 | 0.59 | 96 | 1014.9 |
| 20260506210347 | 56 | 235 | 0.0 | 0.0 | 0.00 | 0.00 | 0.59 | 97 | 1014.9 |
| 20260506204531 | 56 | 245 | 0.0 | 0.0 | 0.00 | 0.00 | 0.57 | 97 | 1014.9 |
| 20260506203311 | 55 | 244 | 0.0 | 0.0 | 0.00 | 0.00 | 0.57 | 97 | 1014.5 |
| 20260506202713 | 55 | 232 | 0.0 | 0.0 | 0.00 | 0.00 | 0.57 | 97 | 1014.5 |
| 20260506201533 | 55 | 204 | 2.0 | 2.0 | 0.00 | 0.00 | 0.57 | 97 | 1014.9 |
| 20260506200314 | 55 | 228 | 0.0 | 0.0 | 0.00 | 0.00 | 0.56 | 97 | 1014.5 |
| 20260506195752 | 55 | 216 | 2.0 | 5.0 | 0.00 | 0.00 | 0.56 | 97 | 1014.9 |
| 20260506194536 | 56 | 247 | 4.0 | 7.0 | 0.00 | 0.00 | 0.56 | 97 | 1014.9 |
| 20260506193953 | 56 | 194 | 2.0 | 5.0 | 0.00 | 0.00 | 0.56 | 97 | 1014.9 |
| 20260506193353 | 56 | 248 | 0.0 | 0.0 | 0.00 | 0.00 | 0.56 | 97 | 1014.5 |
| 20260506192743 | 56 | 286 | 1.0 | 2.0 | 0.00 | 0.00 | 0.56 | 97 | 1014.5 |
| 20260506192132 | 56 | 217 | 2.0 | 5.0 | 0.00 | 0.00 | 0.56 | 97 | 1014.5 |
| 20260506191543 | 56 | 225 | 0.0 | 0.0 | 0.00 | 0.00 | 0.56 | 97 | 1014.5 |
| 20260506190913 | 56 | 243 | 0.0 | 0.0 | 0.00 | 0.00 | 0.56 | 97 | 1014.2 |
| 20260506190341 | 56 | 227 | 0.0 | 0.0 | 0.00 | 0.00 | 0.56 | 97 | 1014.2 |
| 20260506185719 | 56 | 219 | 0.0 | 0.0 | 0.00 | 0.00 | 0.54 | 97 | 1014.2 |
| 20260506184536 | 56 | 230 | 0.0 | 0.0 | 0.00 | 0.00 | 0.54 | 97 | 1014.2 |
| 20260506183920 | 56 | 229 | 0.0 | 0.0 | 0.00 | 0.00 | 0.54 | 97 | 1014.2 |
| 20260506183330 | 56 | 213 | 0.0 | 0.0 | 0.00 | 0.00 | 0.54 | 97 | 1014.2 |
| 20260506182741 | 56 | 254 | 0.0 | 0.0 | 0.00 | 0.00 | 0.54 | 97 | 1014.2 |
| 20260506181541 | 56 | 237 | 0.0 | 0.0 | 0.00 | 0.00 | 0.54 | 97 | 1013.8 |
| 20260506180936 | 56 | 218 | 0.0 | 0.0 | 0.00 | 0.00 | 0.54 | 97 | 1013.8 |
| 20260506180354 | 56 | 240 | 3.0 | 7.0 | 0.00 | 0.00 | 0.54 | 97 | 1013.5 |
| 20260506175748 | 56 | 242 | 3.0 | 5.0 | 0.00 | 0.00 | 0.54 | 97 | 1013.8 |
| 20260506175127 | 56 | 237 | 4.0 | 7.0 | 0.00 | 0.00 | 0.54 | 97 | 1013.5 |
| 20260506174531 | 56 | 258 | 4.0 | 5.0 | 0.00 | 0.00 | 0.54 | 97 | 1013.8 |
| 20260506173943 | 56 | 229 | 3.0 | 5.0 | 0.00 | 0.00 | 0.54 | 97 | 1013.8 |
| 20260506173318 | 56 | 210 | 3.0 | 5.0 | 0.00 | 0.00 | 0.54 | 97 | 1013.8 |
| 20260506172712 | 56 | 264 | 1.0 | 2.0 | 0.00 | 0.00 | 0.53 | 97 | 1013.8 |
| 20260506172141 | 56 | 218 | 2.0 | 2.0 | 0.00 | 0.00 | 0.53 | 97 | 1013.8 |
| 20260506170953 | 56 | 235 | 2.0 | 2.0 | 0.00 | 0.00 | 0.53 | 97 | 1013.8 |
| 20260506170310 | 56 | 273 | 2.0 | 5.0 | 0.00 | 0.00 | 0.53 | 97 | 1013.8 |
| 20260506163946 | 57 | 234 | 4.0 | 5.0 | 0.00 | 0.00 | 0.52 | 97 | 1013.8 |
| 20260506163334 | 57 | 207 | 3.0 | 5.0 | 0.00 | 0.00 | 0.52 | 97 | 1013.5 |
| 20260506162749 | 58 | 194 | 4.0 | 7.0 | 0.00 | 0.00 | 0.52 | 97 | 1013.5 |
| 20260506162115 | 58 | 295 | 3.0 | 5.0 | 0.00 | 0.00 | 0.52 | 97 | 1013.5 |
| 20260506161546 | 59 | 209 | 2.0 | 5.0 | 0.00 | 0.00 | 0.52 | 97 | 1013.5 |
| 20260506160934 | 60 | 269 | 3.0 | 5.0 | 0.00 | 0.00 | 0.52 | 97 | 1013.5 |
| 20260506160351 | 61 | 250 | 3.0 | 5.0 | 0.00 | 0.00 | 0.52 | 97 | 1013.5 |
| 20260506155711 | 62 | 226 | 4.0 | 5.0 | 0.00 | 0.00 | 0.52 | 97 | 1013.2 |
| 20260506155128 | 62 | 275 | 4.0 | 7.0 | 0.00 | 0.00 | 0.52 | 96 | 1013.2 |
| 20260506154542 | 63 | 248 | 4.0 | 5.0 | 0.00 | 0.00 | 0.52 | 96 | 1012.8 |
| 20260506153930 | 63 | 351 | 0.0 | 0.0 | 0.00 | 0.00 | 0.51 | 97 | 1012.8 |
| 20260506153334 | 63 | 249 | 1.0 | 2.0 | 0.00 | 0.00 | 0.51 | 96 | 1012.5 |
| 20260506152733 | 63 | 206 | 0.0 | 0.0 | 0.00 | 0.00 | 0.51 | 97 | 1012.5 |
| 20260506151533 | 62 | 186 | 0.0 | 0.0 | 0.00 | 0.00 | 0.51 | 97 | 1012.5 |
| 20260506150933 | 62 | 226 | 0.0 | 0.0 | 0.00 | 0.00 | 0.51 | 97 | 1012.5 |
| 20260506150311 | 62 | 67 | 0.0 | 0.0 | 0.00 | 0.00 | 0.51 | 97 | 1012.5 |
| 20260506145750 | 62 | 204 | 0.0 | 0.0 | 0.00 | 0.00 | 0.51 | 97 | 1012.1 |
| 20260506145133 | 62 | 67 | 3.0 | 5.0 | 0.00 | 0.00 | 0.51 | 97 | 1012.1 |
| 20260506144538 | 62 | 227 | 0.0 | 0.0 | 0.00 | 0.00 | 0.51 | 97 | 1011.8 |
| 20260506143929 | 62 | 101 | 0.0 | 0.0 | 0.00 | 0.00 | 0.51 | 97 | 1012.1 |
| 20260506143317 | 62 | 110 | 0.0 | 0.0 | 0.00 | 0.00 | 0.51 | 97 | 1011.8 |
| 20260506142716 | 62 | 106 | 0.0 | 0.0 | 0.00 | 0.00 | 0.51 | 97 | 1012.1 |
| 20260506142117 | 62 | 54 | 0.0 | 0.0 | 0.00 | 0.00 | 0.51 | 97 | 1011.8 |
| 20260506141523 | 62 | 104 | 2.0 | 2.0 | 0.00 | 0.00 | 0.51 | 98 | 1012.1 |
| 20260506140935 | 62 | 75 | 0.0 | 0.0 | 0.00 | 0.00 | 0.51 | 98 | 1012.1 |
| 20260506140343 | 61 | 61 | 0.0 | 0.0 | 0.00 | 0.00 | 0.51 | 98 | 1012.1 |
| 20260506135734 | 61 | 224 | 0.0 | 0.0 | 0.00 | 0.00 | 0.51 | 98 | 1012.1 |
| 20260506135139 | 61 | 89 | 0.0 | 0.0 | 0.00 | 0.00 | 0.51 | 97 | 1011.8 |
| 20260506134512 | 61 | 92 | 0.0 | 0.0 | 0.00 | 0.00 | 0.51 | 97 | 1012.1 |
| 20260506133920 | 61 | 86 | 0.0 | 0.0 | 0.00 | 0.00 | 0.51 | 97 | 1011.8 |
| 20260506133350 | 61 | 103 | 0.0 | 0.0 | 0.00 | 0.00 | 0.51 | 97 | 1011.5 |
| 20260506132744 | 61 | 210 | 0.0 | 0.0 | 0.00 | 0.00 | 0.51 | 98 | 1011.5 |
| 20260506132120 | 61 | 57 | 0.0 | 2.0 | 0.00 | 0.00 | 0.51 | 98 | 1011.1 |
| 20260506131514 | 61 | 171 | 0.0 | 0.0 | 0.00 | 0.00 | 0.51 | 98 | 1011.5 |
| 20260506130920 | 61 | 231 | 0.0 | 0.0 | 0.00 | 0.00 | 0.51 | 98 | 1011.1 |
| 20260506125727 | 60 | 194 | 0.0 | 0.0 | 0.00 | 0.00 | 0.51 | 98 | 1011.1 |
| 20260506125146 | 60 | 224 | 0.0 | 0.0 | 0.00 | 0.00 | 0.51 | 98 | 1010.8 |
| 20260506124511 | 60 | 194 | 0.0 | 0.0 | 0.00 | 0.00 | 0.51 | 98 | 1011.1 |
| 20260506123932 | 60 | 210 | 0.0 | 0.0 | 0.00 | 0.00 | 0.51 | 98 | 1010.8 |
| 20260506123320 | 60 | 71 | 0.0 | 2.0 | 0.00 | 0.00 | 0.51 | 98 | 1010.8 |
| 20260506122715 | 60 | 235 | 0.0 | 0.0 | 0.00 | 0.00 | 0.51 | 98 | 1010.8 |
| 20260506122149 | 60 | 142 | 0.0 | 0.0 | 0.00 | 0.00 | 0.51 | 98 | 1010.8 |
| 20260506121518 | 60 | 153 | 0.0 | 0.0 | 0.00 | 0.00 | 0.51 | 98 | 1010.8 |
| 20260506120310 | 60 | 213 | 0.0 | 0.0 | 0.00 | 0.00 | 0.51 | 98 | 1011.1 |
| 20260506115715 | 60 | 84 | 2.0 | 2.0 | 0.00 | 0.00 | 0.51 | 98 | 1010.8 |
| 20260506115122 | 59 | 108 | 0.0 | 0.0 | 0.00 | 0.00 | 0.51 | 98 | 1010.8 |
| 20260506114533 | 59 | 226 | 0.0 | 0.0 | 0.00 | 0.00 | 0.51 | 98 | 1010.8 |
| 20260506113948 | 59 | 87 | 0.0 | 0.0 | 0.00 | 0.00 | 0.51 | 98 | 1010.4 |
| 20260506112733 | 59 | 105 | 0.0 | 0.0 | 0.00 | 0.00 | 0.50 | 98 | 1010.1 |
| 20260506111515 | 59 | 180 | 0.0 | 0.0 | 0.00 | 0.00 | 0.50 | 98 | 1010.4 |
| 20260506110913 | 59 | 251 | 0.0 | 0.0 | 0.00 | 0.00 | 0.50 | 98 | 1010.8 |
| 20260506105711 | 59 | 229 | 0.0 | 0.0 | 0.00 | 0.00 | 0.48 | 98 | 1010.1 |
| 20260506105146 | 59 | 16 | 0.0 | 0.0 | 0.00 | 0.00 | 0.47 | 98 | 1010.1 |
| 20260506103921 | 59 | 252 | 0.0 | 0.0 | 0.00 | 0.00 | 0.45 | 98 | 1009.4 |
| 20260506103351 | 59 | 216 | 0.0 | 0.0 | 0.00 | 0.00 | 0.44 | 98 | 1009.4 |
| 20260506102708 | 59 | 196 | 0.0 | 0.0 | 0.00 | 0.00 | 0.44 | 98 | 1009.1 |
| 20260506102109 | 59 | 156 | 0.0 | 0.0 | 0.00 | 0.00 | 0.44 | 98 | 1008.8 |
| 20260506100950 | 59 | 61 | 2.0 | 2.0 | 0.00 | 0.00 | 0.44 | 98 | 1009.1 |
| 20260506095711 | 59 | 202 | 0.0 | 0.0 | 0.00 | 0.00 | 0.44 | 98 | 1009.1 |
| 20260506095149 | 59 | 153 | 0.0 | 0.0 | 0.00 | 0.00 | 0.44 | 98 | 1009.1 |
| 20260506094538 | 59 | 105 | 0.0 | 0.0 | 0.00 | 0.00 | 0.44 | 98 | 1009.4 |
| 20260506093321 | 59 | 218 | 0.0 | 0.0 | 0.00 | 0.00 | 0.41 | 98 | 1009.1 |
| 20260506092747 | 59 | 186 | 0.0 | 0.0 | 0.00 | 0.00 | 0.39 | 98 | 1009.1 |
| 20260506092113 | 59 | 183 | 0.0 | 0.0 | 0.00 | 0.00 | 0.38 | 98 | 1009.1 |
| 20260506090323 | 59 | 199 | 0.0 | 0.0 | 0.00 | 0.00 | 0.30 | 98 | 1009.1 |
| 20260506085736 | 59 | 216 | 0.0 | 0.0 | 0.00 | 0.00 | 0.28 | 98 | 1009.8 |
| 20260506085114 | 59 | 198 | 0.0 | 0.0 | 0.00 | 0.00 | 0.28 | 98 | 1009.1 |
| 20260506083926 | 59 | 207 | 0.0 | 0.0 | 0.00 | 0.00 | 0.28 | 97 | 1009.4 |
| 20260506083337 | 59 | 187 | 0.0 | 0.0 | 0.00 | 0.00 | 0.26 | 97 | 1009.4 |
| 20260506082737 | 59 | 230 | 0.0 | 0.0 | 0.00 | 0.00 | 0.24 | 97 | 1009.8 |
| 20260506082142 | 59 | 107 | 0.0 | 0.0 | 0.00 | 0.00 | 0.21 | 97 | 1009.4 |
| 20260506081514 | 59 | 39 | 0.0 | 0.0 | 0.00 | 0.00 | 0.19 | 97 | 1009.8 |
| 20260506080930 | 59 | 4 | 0.0 | 2.0 | 0.00 | 0.00 | 0.18 | 97 | 1009.4 |
| 20260506080318 | 59 | 188 | 0.0 | 0.0 | 0.00 | 0.00 | 0.13 | 97 | 1009.8 |
| 20260506073309 | 59 | 168 | 0.0 | 0.0 | 0.00 | 0.00 | 0.08 | 97 | 1010.1 |
| 20260506072709 | 58 | 211 | 0.0 | 0.0 | 0.00 | 0.00 | 0.08 | 97 | 1010.1 |
| 20260506072143 | 58 | 130 | 0.0 | 0.0 | 0.00 | 0.00 | 0.08 | 97 | 1010.1 |
| 20260506071550 | 58 | 128 | 0.0 | 0.0 | 0.00 | 0.00 | 0.06 | 97 | 1010.4 |
| 20260506070907 | 58 | 239 | 0.0 | 0.0 | 0.00 | 0.00 | 0.04 | 97 | 1010.8 |
| 20260506070330 | 58 | 231 | 0.0 | 0.0 | 0.00 | 0.00 | 0.04 | 96 | 1010.4 |
| 20260506062127 | 58 | 231 | 0.0 | 0.0 | 0.00 | 0.00 | 0.01 | 96 | 1010.4 |
| 20260506061510 | 58 | 227 | 0.0 | 0.0 | 0.00 | 0.00 | 0.01 | 96 | 1010.4 |
| 20260506060342 | 58 | 210 | 0.0 | 0.0 | 0.00 | 0.00 | 0.00 | 96 | 1010.4 |
| 20260506050949 | 59 | 226 | 0.0 | 0.0 | 0.00 | 0.00 | 0.00 | 95 | 1010.4 |
| 20260506050336 | 59 | 230 | 0.0 | 0.0 | 0.00 | 0.00 | 0.00 | 95 | 1010.1 |
| 20260506044516 | 59 | 229 | 0.0 | 0.0 | 0.00 | 0.00 | 0.00 | 94 | 1010.8 |
| 20260506043920 | 60 | 220 | 0.0 | 0.0 | 0.00 | 0.00 | 0.00 | 94 | 1010.8 |
| 20260506042725 | 60 | 210 | 0.0 | 0.0 | 0.00 | 0.00 | 0.00 | 94 | 1010.8 |
| 20260506042128 | 60 | 228 | 0.0 | 0.0 | 0.00 | 0.00 | 0.00 | 93 | 1011.1 |
| 20260506041543 | 60 | 234 | 0.0 | 0.0 | 0.00 | 0.00 | 0.00 | 93 | 1011.1 |
| 20260506040349 | 60 | 232 | 0.0 | 0.0 | 0.00 | 0.00 | 0.00 | 92 | 1010.8 |
| 20260506035712 | 60 | 227 | 0.0 | 0.0 | 0.00 | 0.00 | 0.00 | 90 | 1010.8 |
| 20260506035141 | 60 | 227 | 0.0 | 0.0 | 0.00 | 0.00 | 0.00 | 90 | 1010.8 |